sat.trackr.live / text

‹ back to catalog

STARLINK-4439

NORAD 53498 · 2022-099AK

PAYLOAD ACTIVE UNKNOWN

§ Identity

Operator
Country
US
Launch date
2022-08-12
Launch site
AFWTR
Launch vehicle
Mass (kg)
RCS (m²)

Purposes: comms

External: N2YO · Heavens-Above · Gunter

§ Orbital elements

Epoch: 2026-09-19T07:03:39.653280Z

Period
93.91 min
Inclination
97.2855°
Eccentricity
0.0001229
Mean motion
15.33439420 rev/d
Perigee alt
464.7 km
Apogee alt
466.4 km
Semi-major
6,843.7 km
B*
1.2497e-5
RAAN
19.9293°
Arg perigee
98.9654°
Mean anomaly
261.1728°
Rev number
22,536

§ Raw data

STARLINK-44391 53498U 22099AK  26262.29420895  .00000328  00000+0  12497-4 0  99972 53498  97.2855  19.9293 0001229  98.9654 261.1728 15.33439420225364

JSON: /api/v1/satellites/53498 · /tle

For live sub-satellite position, see the globe view (requires WebGL).

§ Visibility from observer

Set your observer location to see the next 7 days of passes ≥ 10°. The values pass through the URL so the page stays shareable.

No JS? Fill the form by hand. The geolocation button needs JavaScript.